Weather History for KJDD - November, 2013

Change the Weather History Date:

Sunday, November 3, 2013

  Actual Average (KTYR) Record (KTYR)
Temperature  
Mean Temperature 50 °F 60 °F  
Max Temperature 64 °F 71 °F 86 °F (1955)
Min Temperature 37 °F 50 °F 23 °F (1966)
Degree Days  
Heating Degree Days 14 6  
Month to date heating degree days 17  
Since 1 July heating degree days 94  
Cooling Degree Days 0 1  
Month to date cooling degree days 5  
Year to date cooling degree days 2398  
Moisture  
Dew Point 42 °F    
Average Humidity 74    
Maximum Humidity 100    
Minimum Humidity 40    
Precipitation  
Precipitation 0.00 in 0.16 in 1.90 in (1946)
Month to date precipitation 0.45  
Year to date precipitation 37.90  
Snow  
Snow 0.00 in - - ()
Month to date snowfall  
Since 1 July snowfall  
Since 1 September snowfall  
Snow Depth -    
Sea Level Pressure  
Sea Level Pressure 30.18 in    
Wind  
Wind Speed 2 mph (SE)    
Max Wind Speed 9 mph    
Max Gust Speed 18 mph    
Visibility 10 miles    
Events      
T = Trace of Precipitation, MM = Missing Value Source: NWS Daily Summary

Daily Weather History Graph

Daily Weather History Graph

Search for Another Location

Airport or City:

Trip Planner

Search our weather history database for the weather conditions in past years. The results will help you decide how hot, cold, wet, or windy it might be!

Date:

Astronomy

Nov. 03, 2013 Rise Set
Actual Time 6:41 AM CST 5:29 PM CST
Civil Twilight 6:16 AM CST 5:54 PM CST
Nautical Twilight 5:46 AM CST 6:23 PM CST
Astronomical Twilight 5:17 AM CST 6:52 PM CST
Moon 6:45 AM CST (11/3) 5:46 PM CST (11/3)
Length of Visible Light 11h 38m
Length of Day
10h 47m
New Moon, 0% of the Moon is Illuminated
Nov 3
New Moon
Nov 9
First Quarter
Nov 17
Full
Nov 25
Last Quarter
Dec 2
New

Hourly Weather History & Observations

Time (CST) Temp. Dew Point Humidity Pressure Visibility Wind Dir Wind Speed Gust Speed Precip Events Conditions
12:15 AM 42.8 °F 39.2 °F 87% 30.24 in 10.0 mi Calm Calm - N/A   Clear
12:35 AM 41.0 °F 39.2 °F 93% 30.23 in 10.0 mi Calm Calm - N/A   Clear
12:55 AM 41.0 °F 39.2 °F 93% 30.23 in 10.0 mi Calm Calm - N/A   Clear
1:15 AM 41.0 °F 39.2 °F 93% 30.24 in 10.0 mi Calm Calm - N/A   Clear
1:35 AM 41.0 °F 39.2 °F 93% 30.24 in 10.0 mi Calm Calm - N/A   Clear
1:55 AM 39.2 °F 39.2 °F 100% 30.24 in 10.0 mi Calm Calm - N/A   Clear
1:15 AM 39.2 °F 39.2 °F 100% 30.24 in 10.0 mi Calm Calm - N/A   Clear
1:35 AM 39.2 °F 39.2 °F 100% 30.24 in 10.0 mi Calm Calm - N/A   Clear
1:55 AM 39.2 °F 39.2 °F 100% 30.23 in 10.0 mi Calm Calm - N/A   Clear
2:15 AM 39.2 °F 39.2 °F 100% 30.23 in 10.0 mi Calm Calm - N/A   Clear
2:35 AM 39.2 °F 39.2 °F 100% 30.23 in 10.0 mi Calm Calm - N/A   Clear
2:55 AM 39.2 °F 37.4 °F 93% 30.23 in 10.0 mi Calm Calm - N/A   Clear
3:15 AM 37.4 °F 37.4 °F 100% 30.22 in 10.0 mi Calm Calm - N/A   Clear
3:35 AM 37.4 °F 37.4 °F 100% 30.22 in 10.0 mi Calm Calm - N/A   Clear
3:55 AM 39.2 °F 37.4 °F 93% 30.23 in 10.0 mi Calm Calm - N/A   Clear
4:15 AM 37.4 °F 37.4 °F 100% 30.23 in 10.0 mi Calm Calm - N/A   Clear
4:35 AM 37.4 °F 37.4 °F 100% 30.23 in 10.0 mi Calm Calm - N/A   Clear
4:55 AM 37.4 °F 37.4 °F 100% 30.23 in 9.0 mi Calm Calm - N/A   Clear
5:15 AM 37.4 °F 37.4 °F 100% 30.23 in 8.0 mi Calm Calm - N/A   Clear
5:35 AM 37.4 °F 37.4 °F 100% 30.22 in 8.0 mi Calm Calm - N/A   Clear
5:55 AM 37.4 °F 37.4 °F 100% 30.22 in 8.0 mi Calm Calm - N/A   Clear
6:15 AM 37.4 °F 37.4 °F 100% 30.23 in 9.0 mi Calm Calm - N/A   Clear
6:35 AM 37.4 °F 37.4 °F 100% 30.23 in 7.0 mi Calm Calm - N/A   Clear
6:55 AM 37.4 °F 37.4 °F 100% 30.23 in 7.0 mi Calm Calm - N/A   Clear
7:15 AM 37.4 °F 37.4 °F 100% 30.24 in 8.0 mi Calm Calm - N/A   Clear
7:35 AM 39.2 °F 39.2 °F 100% 30.24 in 9.0 mi Calm Calm - N/A   Clear
7:55 AM 42.8 °F 42.8 °F 100% 30.25 in 10.0 mi Calm Calm - N/A   Clear
8:15 AM 46.4 °F 44.6 °F 93% 30.25 in 9.0 mi Calm Calm - N/A   Clear
8:35 AM 50.0 °F 44.6 °F 82% 30.26 in 10.0 mi SE 4.6 mph - N/A   Clear
8:55 AM 51.8 °F 44.6 °F 76% 30.25 in 10.0 mi SE 6.9 mph - N/A   Clear
9:15 AM 53.6 °F 42.8 °F 67% 30.25 in 10.0 mi SE 3.5 mph - N/A   Clear
9:35 AM 55.4 °F 44.6 °F 67% 30.25 in 10.0 mi SE 6.9 mph - N/A   Clear
9:55 AM 57.2 °F 42.8 °F 59% 30.24 in 10.0 mi SE 6.9 mph - N/A   Clear
10:15 AM 59.0 °F 42.8 °F 55% 30.24 in 10.0 mi SE 9.2 mph - N/A   Clear
10:35 AM 59.0 °F 44.6 °F 59% 30.24 in 10.0 mi ESE 8.1 mph - N/A   Clear
10:55 AM 60.8 °F 42.8 °F 52% 30.22 in 10.0 mi SE 6.9 mph - N/A   Clear
11:15 AM 60.8 °F 42.8 °F 52% 30.21 in 10.0 mi South 8.1 mph - N/A   Clear
11:35 AM 60.8 °F 42.8 °F 52% 30.20 in 10.0 mi SSE 6.9 mph - N/A   Clear
11:55 AM 62.6 °F 41.0 °F 45% 30.17 in 10.0 mi SE 9.2 mph - N/A   Clear
12:15 PM 62.6 °F 39.2 °F 42% 30.16 in 10.0 mi ESE 6.9 mph 18.4 mph N/A   Clear
12:35 PM 62.6 °F 39.2 °F 42% 30.17 in 10.0 mi Calm Calm - N/A   Clear
12:55 PM 62.6 °F 39.2 °F 42% 30.16 in 10.0 mi South 5.8 mph - N/A   Clear
1:15 PM 64.4 °F 41.0 °F 42% 30.14 in 10.0 mi SE 3.5 mph - N/A   Clear
1:35 PM 64.4 °F 39.2 °F 40% 30.13 in 10.0 mi SE 5.8 mph - N/A   Clear
1:55 PM 64.4 °F 41.0 °F 42% 30.12 in 10.0 mi SSE 6.9 mph - N/A   Clear
2:15 PM 64.4 °F 41.0 °F 42% 30.11 in 10.0 mi SE 8.1 mph - N/A   Clear
2:35 PM 64.4 °F 41.0 °F 42% 30.11 in 10.0 mi SE 6.9 mph - N/A   Clear
2:55 PM 64.4 °F 41.0 °F 42% 30.10 in 10.0 mi SE 8.1 mph - N/A   Clear
3:15 PM 64.4 °F 41.0 °F 42% 30.10 in 10.0 mi SE 5.8 mph - N/A   Clear
3:35 PM 62.6 °F 41.0 °F 45% 30.10 in 10.0 mi SSE 5.8 mph - N/A   Clear
3:55 PM 64.4 °F 42.8 °F 45% 30.11 in 10.0 mi SE 3.5 mph - N/A   Clear
4:15 PM 62.6 °F 42.8 °F 48% 30.11 in 10.0 mi SE 3.5 mph - N/A   Clear
4:35 PM 62.6 °F 42.8 °F 48% 30.09 in 10.0 mi Calm Calm - N/A   Clear
4:55 PM 60.8 °F 42.8 °F 52% 30.10 in 10.0 mi Calm Calm - N/A   Clear
5:15 PM 60.8 °F 44.6 °F 55% 30.09 in 10.0 mi Calm Calm - N/A   Clear
5:35 PM 57.2 °F 46.4 °F 67% 30.09 in 10.0 mi Calm Calm - N/A   Clear
5:55 PM 57.2 °F 46.4 °F 67% 30.09 in 10.0 mi Calm Calm - N/A   Clear
6:15 PM 57.2 °F 46.4 °F 67% 30.11 in 10.0 mi Calm Calm - N/A   Clear
6:35 PM 55.4 °F 46.4 °F 72% 30.10 in 10.0 mi ESE 3.5 mph - N/A   Clear
6:55 PM 55.4 °F 46.4 °F 72% 30.09 in 10.0 mi Calm Calm - N/A   Clear
7:15 PM 55.4 °F 46.4 °F 72% 30.10 in 10.0 mi Calm Calm - N/A   Clear
7:35 PM 55.4 °F 46.4 °F 72% 30.12 in 10.0 mi Calm Calm - N/A   Clear
7:55 PM 55.4 °F 46.4 °F 72% 30.12 in 10.0 mi SE 4.6 mph - N/A   Clear
8:15 PM 55.4 °F 46.4 °F 72% 30.12 in 10.0 mi Calm Calm - N/A   Clear
8:35 PM 53.6 °F 46.4 °F 77% 30.13 in 10.0 mi Calm Calm - N/A   Clear
8:55 PM 53.6 °F 46.4 °F 77% 30.13 in 10.0 mi Calm Calm - N/A   Clear
9:15 PM 53.6 °F 46.4 °F 77% 30.12 in 10.0 mi Calm Calm - N/A   Clear
9:35 PM 53.6 °F 46.4 °F 77% 30.11 in 10.0 mi Calm Calm - N/A   Clear
9:55 PM 53.6 °F 46.4 °F 77% 30.11 in 10.0 mi SE 3.5 mph - N/A   Clear
10:15 PM 53.6 °F 46.4 °F 77% 30.10 in 10.0 mi SE 5.8 mph - N/A   Clear
10:35 PM 53.6 °F 44.6 °F 72% 30.09 in 10.0 mi SE 6.9 mph - N/A   Clear
10:55 PM 55.4 °F 46.4 °F 72% 30.08 in 10.0 mi SE 6.9 mph - N/A   Clear